Location: *
(35.2348°S, 91.3916°E)
Time: 03:05:50
(UTC+00:00)

FALCON 9 R/B - Pass Details

Date: 23 October 2019
Orbit: 284 x 10168 km, 34.5° (Epoch: 17 November)

Event Time Altitude Azimuth Distance (km) Brightness Sun altitude
Exits shadow 20:36:28 13° 68° (ENE) 1,453 3.8 -27.1°
Drops below altitude 10° 20:36:58 10° 69° (ENE) 1,696 4.1 -27.1°
Sets 20:40:11 0° 73° (ENE) 3,275 5.7 -26.6°
